Waarnemingen

Advertentie
Mijn weer
Dieppe, Frankrijk (7040): temperatuur & dauwpunt: 09.10.2019 21:00:00 - 15.10.2019 21:00:00 (CEST)Dieppe, Frankrijk (7040): temperatuur 5cm: 09.10.2019 21:00:00 - 15.10.2019 21:00:00 (CEST)Dieppe, Frankrijk (7040): windsnelheid & windstoten: 09.10.2019 21:00:00 - 15.10.2019 21:00:00 (CEST)Dieppe, Frankrijk (7040): windrichting: 09.10.2019 21:00:00 - 15.10.2019 21:00:00 (CEST)Dieppe, Frankrijk (7040): luchtdruk: 09.10.2019 21:00:00 - 15.10.2019 21:00:00 (CEST)Dieppe, Frankrijk (7040): zicht: 09.10.2019 21:00:00 - 15.10.2019 21:00:00 (CEST)Dieppe, Frankrijk (7040): neerslag: 09.10.2019 21:00:00 - 15.10.2019 21:00:00 (CEST)
Datum & Tijd tt [°C] td [°C] tt 5cm [°C] ff [km/u] ff [kn] fx [km/u] fx [kn] dd ppp [hPa] vv [km] rr [mm]
15.10.2019 21:00:00 12,7 10,9 11,7 14 8 27 14 ZZW 1008,1 - 0,0
15.10.2019 20:00:00 12,7 10,9 11,7 16 9 34 18 ZZW 1007,8 - 0,4
15.10.2019 19:00:00 14,2 9,4 13,4 14 8 26 14 ZZW 1006,9 - 0,0
15.10.2019 18:00:00 15,0 8,9 14,8 11 6 24 13 ZZW 1006,4 - 0,0
15.10.2019 17:00:00 15,2 9,1 15,0 11 6 33 18 ZZW 1006,5 18 0,0
15.10.2019 16:00:00 15,8 9,9 16,1 13 7 26 14 ZZW 1006,3 - 0,0
15.10.2019 15:00:00 15,5 10,3 15,1 13 7 28 15 ZZW 1006,4 - 0,0
15.10.2019 14:00:00 14,6 10,2 15,5 10 5 29 15 ZZW 1006,4 18 0,0
15.10.2019 13:00:00 14,8 9,6 15,6 14 8 30 16 ZZW 1006,5 - 0,0
15.10.2019 12:00:00 14,1 9,5 15,1 15 8 32 18 ZZW 1006,8 - 0,0
15.10.2019 11:00:00 13,3 10,1 13,1 15 8 32 18 ZZW 1006,1 18 0,0
15.10.2019 10:00:00 12,9 10,1 12,7 14 8 33 18 ZZW 1005,7 - 0,0
15.10.2019 09:00:00 13,0 10,7 12,7 17 9 31 17 ZZW 1005,3 - 0,0
15.10.2019 08:00:00 13,3 11,9 12,7 11 6 23 12 Z 1004,6 10 0,0
15.10.2019 07:00:00 13,5 11,5 13,1 13 7 26 14 Z 1005,1 - 0,0
15.10.2019 06:00:00 13,4 11,5 12,7 11 6 27 14 Z 1004,8 - 0,0
15.10.2019 05:00:00 13,1 11,3 12,7 11 6 24 13 Z 1005,0 15 0,0
15.10.2019 04:00:00 13,4 11,8 12,9 10 6 23 12 Z 1004,7 - 0,0
15.10.2019 03:00:00 13,9 11,8 13,5 12 7 30 16 Z 1004,9 - 0,0
15.10.2019 02:00:00 14,4 12,1 14,2 12 6 27 15 ZZW 1005,2 - 0,0
15.10.2019 01:00:00 14,8 12,3 14,3 11 6 28 15 ZZW 1004,9 - 0,0
15.10.2019 00:00:00 14,9 12,8 14,3 14 8 32 18 ZZW 1005,0 - 0,0
14.10.2019 23:00:00 14,9 12,9 14,2 14 8 40 22 ZZW 1003,8 15 0,0
14.10.2019 22:00:00 15,1 13,1 14,3 21 12 45 24 Z 1003,6 - 0,0
14.10.2019 21:00:00 15,3 13,5 14,2 20 11 40 22 Z 1002,9 - 0,0
14.10.2019 20:00:00 14,8 13,5 13,6 15 8 34 18 ZZO 1002,5 9 2,7
14.10.2019 19:00:00 15,0 13,0 13,7 17 9 76 41 ZZO 1003,3 - 8,5
14.10.2019 18:00:00 20,3 15,1 18,2 3 2 26 14 ZZO 1002,2 - 0,0
14.10.2019 17:00:00 20,9 14,8 20,9 13 7 31 17 ZZO 1002,3 12 0,0
14.10.2019 16:00:00 20,3 14,9 19,5 14 7 32 17 ZZO 1002,5 - 0,0
14.10.2019 15:00:00 20,3 15,1 20,5 11 6 40 21 ZZO 1003,4 - 0,0
14.10.2019 14:00:00 20,7 14,6 20,6 19 10 40 22 Z 1004,3 - 0,0
14.10.2019 13:00:00 19,6 14,8 19,0 16 9 39 21 Z 1005,2 - 0,0
14.10.2019 12:00:00 17,4 14,7 16,6 15 8 31 17 ZZO 1005,8 - 0,0
14.10.2019 11:00:00 15,7 13,9 14,9 17 9 39 21 ZZO 1006,0 15 0,0
14.10.2019 10:00:00 14,5 13,0 13,3 9 5 25 14 ZZO 1007,0 - 0,0
14.10.2019 09:00:00 13,6 12,3 13,0 8 4 24 13 O 1008,1 - 1,2
14.10.2019 08:00:00 13,6 12,5 12,8 10 5 21 11 NNO 1008,8 - 1,4
14.10.2019 07:00:00 13,3 12,5 12,7 4 2 14 8 ONO 1009,8 - 1,0
14.10.2019 06:00:00 13,4 12,5 12,9 3 1 9 5 OZO 1011,0 - 0,2
14.10.2019 05:00:00 13,3 12,4 12,9 7 4 17 9 ZO 1011,3 - 0,0
14.10.2019 04:00:00 13,5 12,6 13,0 8 5 14 8 ZO 1011,6 - 0,0
14.10.2019 03:00:00 13,6 12,7 13,0 6 4 12 7 ZO 1011,4 - 0,0
14.10.2019 02:00:00 13,8 12,9 13,1 8 4 15 8 ZZO 1012,7 - 0,2
14.10.2019 01:00:00 13,8 12,7 13,3 9 5 17 9 ZZO 1013,1 - 0,0
14.10.2019 00:00:00 13,9 12,8 13,2 9 5 14 7 Z 1012,8 - 0,0
13.10.2019 23:00:00 14,0 12,6 13,2 9 5 18 10 Z 1012,3 10 0,0
13.10.2019 22:00:00 14,3 12,7 13,5 10 5 19 10 Z 1011,7 - 0,0
13.10.2019 21:00:00 14,6 12,8 13,6 11 6 22 12 ZZW 1011,0 - 0,0
13.10.2019 20:00:00 14,9 13,3 14,0 11 6 28 15 ZZW 1010,7 - 0,0
13.10.2019 19:00:00 14,9 13,8 14,1 11 6 26 14 ZZW 1009,7 - 0,2
13.10.2019 18:00:00 14,6 13,6 13,8 17 9 37 20 ZW 1008,6 - 1,0
13.10.2019 17:00:00 14,5 13,2 14,0 24 13 59 32 WZW 1007,9 - 4,7
13.10.2019 16:00:00 17,4 14,3 15,7 27 14 49 26 ZW 1006,7 - 0,2
13.10.2019 15:00:00 19,4 15,3 18,3 21 11 49 26 ZZW 1005,7 - 0,0
13.10.2019 14:00:00 18,9 15,8 17,5 20 11 42 23 Z 1005,1 8 0,0
13.10.2019 13:00:00 19,6 15,5 19,4 18 10 51 28 ZZW 1005,3 - 0,0
13.10.2019 12:00:00 19,8 15,4 19,3 26 14 51 28 Z 1004,4 - 0,0
13.10.2019 11:00:00 18,7 15,2 17,9 21 11 46 25 Z 1004,2 18 0,0
13.10.2019 10:00:00 17,7 15,0 17,1 18 10 42 23 Z 1004,5 - 0,0
13.10.2019 09:00:00 17,0 13,3 16,0 14 8 28 15 Z 1005,1 - 0,0
13.10.2019 08:00:00 16,6 12,7 15,7 17 9 31 17 Z 1004,9 - 0,0
13.10.2019 07:00:00 16,1 13,0 15,1 17 9 33 18 Z 1005,1 - 0,0
13.10.2019 06:00:00 15,3 13,3 14,9 12 7 24 13 Z 1005,8 - 0,0
13.10.2019 05:00:00 15,3 13,1 14,7 10 5 28 15 Z 1006,1 - 0,0
13.10.2019 04:00:00 15,5 13,2 15,0 14 7 29 16 Z 1006,8 - 0,0
13.10.2019 03:00:00 15,5 13,2 15,0 14 8 28 15 Z 1007,1 - 0,0
13.10.2019 02:00:00 16,1 13,4 15,5 12 7 26 14 Z 1007,6 - 0,0
13.10.2019 01:00:00 17,1 13,6 16,7 13 7 23 13 Z 1008,2 - 0,0
13.10.2019 00:00:00 17,2 13,7 16,8 11 6 30 16 Z 1008,4 - 0,0
12.10.2019 23:00:00 17,1 13,4 16,2 14 7 28 15 Z 1008,5 10 0,0
12.10.2019 22:00:00 16,7 13,2 16,2 15 8 29 16 Z 1008,5 - 0,0
12.10.2019 21:00:00 17,1 13,2 16,6 16 9 32 18 Z 1008,2 - 0,0
12.10.2019 20:00:00 17,8 12,9 17,2 12 7 28 15 Z 1008,4 - 0,0
12.10.2019 19:00:00 18,6 13,0 18,1 16 9 32 17 Z 1008,2 - 0,0
12.10.2019 18:00:00 19,1 12,8 18,8 14 8 32 17 ZZW 1008,1 - 0,0
12.10.2019 17:00:00 19,7 13,2 19,2 15 8 31 17 ZZW 1008,6 - 0,0
12.10.2019 16:00:00 18,9 13,3 19,1 14 7 32 18 ZZW 1009,1 - 0,0
12.10.2019 15:00:00 18,8 13,2 18,8 15 8 35 19 ZZW 1009,5 - 0,0
12.10.2019 14:00:00 19,5 13,7 19,7 17 9 32 18 Z 1009,8 - 0,0
12.10.2019 13:00:00 18,2 12,9 18,3 19 11 37 20 ZZW 1010,0 - 0,0
12.10.2019 12:00:00 17,4 12,9 17,1 19 10 36 19 Z 1009,8 - 0,0
12.10.2019 11:00:00 16,3 12,6 16,4 19 10 37 20 ZZW 1009,7 20 0,0
12.10.2019 10:00:00 15,6 12,3 15,5 20 11 40 22 Z 1009,4 - 0,0
12.10.2019 09:00:00 15,2 12,3 14,8 18 10 37 20 Z 1009,0 - 0,0
12.10.2019 08:00:00 15,0 12,1 14,5 20 11 36 20 Z 1008,8 12 0,0
12.10.2019 07:00:00 14,7 12,0 14,0 20 11 36 20 Z 1008,8 - 0,0
12.10.2019 06:00:00 14,3 11,8 13,9 19 10 37 20 Z 1008,6 - 0,0
12.10.2019 05:00:00 14,6 11,7 13,8 20 11 34 19 Z 1008,7 10 0,0
12.10.2019 04:00:00 14,4 11,7 13,9 16 9 32 18 Z 1009,2 - 0,0
12.10.2019 03:00:00 14,9 11,9 14,5 16 9 35 19 Z 1009,2 - 0,0
12.10.2019 02:00:00 15,2 12,0 14,7 19 10 39 21 Z 1009,2 - 0,0
12.10.2019 01:00:00 15,7 12,1 15,2 17 9 38 20 Z 1009,3 - 0,0
12.10.2019 00:00:00 16,4 12,6 15,7 20 11 39 21 Z 1009,3 - 0,0
11.10.2019 23:00:00 16,9 12,6 16,3 17 9 35 19 Z 1009,3 - 0,0
11.10.2019 22:00:00 17,0 12,7 16,3 16 9 31 17 Z 1009,7 - 0,0
11.10.2019 21:00:00 17,4 12,9 16,8 15 8 31 17 Z 1009,8 - 0,0
11.10.2019 20:00:00 17,5 13,2 16,9 12 6 31 17 ZZW 1010,3 18 0,0
11.10.2019 19:00:00 18,0 12,9 17,5 16 8 34 18 ZZW 1010,4 - 0,0
11.10.2019 18:00:00 18,1 13,0 17,9 16 9 38 20 ZZW 1010,5 - 0,0
11.10.2019 17:00:00 18,2 12,9 18,0 20 11 49 27 ZZW 1010,5 18 0,0
11.10.2019 16:00:00 18,5 12,9 18,8 22 12 48 26 ZZW 1010,6 - 0,0
11.10.2019 15:00:00 18,1 12,8 17,9 18 10 46 25 ZZW 1011,1 - 0,0
11.10.2019 14:00:00 17,8 12,5 18,0 18 10 48 26 ZZW 1011,8 - 0,0
11.10.2019 13:00:00 17,3 12,2 17,5 23 13 55 30 ZZW 1012,5 - 0,0
11.10.2019 12:00:00 16,8 11,9 16,1 24 13 52 28 ZZW 1012,4 - 0,0
11.10.2019 11:00:00 15,7 12,1 15,4 21 12 41 22 Z 1013,0 - 0,0
11.10.2019 10:00:00 15,2 12,0 14,8 22 12 42 23 Z 1013,0 - 0,0
11.10.2019 09:00:00 14,9 11,9 14,5 19 10 37 20 ZZW 1013,1 - 0,0
11.10.2019 08:00:00 14,8 11,8 14,4 17 9 35 19 Z 1013,0 18 0,0
11.10.2019 07:00:00 15,0 11,8 14,2 16 9 35 19 ZZW 1013,8 - 0,0
11.10.2019 06:00:00 14,6 11,7 14,0 12 6 30 16 ZW 1014,3 - 0,0
11.10.2019 05:00:00 14,3 11,6 13,5 13 7 32 17 ZZW 1014,6 16 0,0
11.10.2019 04:00:00 13,9 11,4 12,7 17 9 39 21 ZZW 1014,6 - 0,0
11.10.2019 03:00:00 13,1 10,5 12,8 18 10 36 19 Z 1014,8 - 0,0
11.10.2019 02:00:00 13,3 10,1 12,9 18 10 41 22 Z 1015,1 - 0,0
11.10.2019 01:00:00 13,6 9,6 13,0 20 11 38 21 Z 1015,4 - 0,0
11.10.2019 00:00:00 13,5 9,0 13,1 18 10 37 20 Z 1015,7 - 0,0
10.10.2019 23:00:00 13,7 8,5 13,1 17 9 31 17 Z 1016,1 10 0,0
10.10.2019 22:00:00 13,6 8,6 12,8 17 9 30 16 Z 1016,4 - 0,0
10.10.2019 21:00:00 13,5 8,8 12,8 12 7 21 11 Z 1016,7 - 0,0
10.10.2019 20:00:00 14,4 8,6 13,4 13 7 29 16 ZZW 1016,8 16 0,0
10.10.2019 19:00:00 15,1 8,8 14,3 16 9 36 20 ZW 1017,0 - 0,0
10.10.2019 18:00:00 16,2 10,1 15,8 16 9 39 21 ZW 1016,7 - 0,0
10.10.2019 17:00:00 16,8 9,0 17,3 23 13 45 24 WZW 1016,6 16 0,0
10.10.2019 16:00:00 16,5 8,7 17,0 23 12 40 22 ZW 1016,8 - 0,0
10.10.2019 15:00:00 16,5 9,4 15,8 23 13 46 25 WZW 1016,7 - 0,0
10.10.2019 14:00:00 15,8 10,1 16,4 24 13 46 25 W 1016,7 - 0,0
10.10.2019 13:00:00 16,0 9,6 15,3 22 12 46 25 WZW 1016,7 - 0,0
10.10.2019 12:00:00 15,4 9,1 14,7 27 14 51 28 W 1016,5 - 0,0
10.10.2019 11:00:00 14,9 9,9 13,4 27 15 47 25 W 1015,7 10 0,0
10.10.2019 10:00:00 12,8 9,6 12,0 13 7 26 14 ZZW 1015,2 - 0,0
10.10.2019 09:00:00 12,3 9,5 11,8 13 7 44 24 ZZW 1014,2 - 0,0
10.10.2019 08:00:00 14,2 9,8 13,5 21 11 48 26 W 1013,5 14 0,0
10.10.2019 07:00:00 14,5 9,7 11,6 28 15 56 31 WNW 1012,7 - 0,0
10.10.2019 06:00:00 13,0 9,4 10,6 32 18 80 43 W 1011,9 - 1,4
10.10.2019 05:00:00 13,3 9,7 11,3 28 15 54 29 WNW 1011,6 8 0,6
10.10.2019 04:00:00 14,2 9,8 12,0 34 18 63 34 WNW 1010,6 - 0,8
10.10.2019 03:00:00 14,2 11,0 12,0 21 12 61 33 W 1010,0 - 0,0
10.10.2019 02:00:00 14,2 10,0 11,0 33 18 55 30 W 1010,0 10 0,0
10.10.2019 01:00:00 11,6 9,0 10,8 18 10 50 27 ZZW 1009,5 - 0,0
10.10.2019 00:00:00 13,0 10,0 10,5 22 12 57 31 WZW 1009,3 - 0,8
09.10.2019 23:00:00 11,6 9,7 10,6 20 11 39 21 ZZW 1008,8 - 0,0
09.10.2019 22:00:00 11,4 9,6 9,9 23 12 64 35 WZW 1009,4 - 9,9
09.10.2019 21:00:00 12,2 10,4 10,6 20 11 39 21 ZW 1009,6 - 2,8

tt = temperatuur
td = dauwpunt
tt 5cm = temperatuur 5cm
ff = windsnelheid
fx = windstoten
dd = windrichting
ppp = luchtdruk
vv = zicht
rr = neerslag

Weerstations in de omgeving